Location: Albany
(35.0170°S, 117.8920°E)
Time: 03:38:53
(UTC+08:00)

Vanguard 1 - Pass Details

Date: 26 January 2021
Orbit: 649 x 3833 km, 34.2° (Epoch: 26 February)

Event Time Altitude Azimuth Distance (km) Brightness Sun altitude
Rises 21:55:35 0° 332° (NNW) 5,938 13.8 -26.3°
Enters shadow 21:59:41 - 342° (NNW) 4,783 13.3 -26.8°
Reaches altitude 10° 22:01:39 10° 348° (NNW) 4,247 - -27.0°
Maximum altitude 22:08:01 18° 25° (NNE) 2,922 - -27.8°
Drops below altitude 10° 22:12:39 10° 65° (ENE) 2,955 - -28.4°
Sets 22:15:48 0° 85° (E) 3,573 - -28.7°
